ACA8869 CYOW-KDCA

Flight info

Callsign ACA8869
Flight time 1h 15m
Altitude 36000
Route IKLAX Q844 SYR J59 PSB SKILS5
Aircraft A321/M-SDE3FGHIRWY/LB1

Departure

Time 2026-04-22 18:57
Airport Ottawa Macdonald-Cartier International Airport (CYOW)

Arrival

Time 2026-04-22 20:12
Airport Ronald Reagan Washington National Airport (KDCA)
Time Latitude Longitude Altitude Speed Heading
2026-04-22 18:31 45.32172 -75.66805 376 ft 0 kts 37°
2026-04-22 18:45 45.32161 -75.66817 376 ft 2 kts 36°
2026-04-22 18:45 45.32149 -75.66830 376 ft 2 kts 37°
2026-04-22 18:46 45.32138 -75.66842 376 ft 2 kts 36°
2026-04-22 18:46 45.32126 -75.66855 376 ft 2 kts 37°
2026-04-22 18:46 45.32113 -75.66868 376 ft 2 kts 53°
2026-04-22 18:46 45.32108 -75.66888 376 ft 2 kts 86°
2026-04-22 18:47 45.32110 -75.66909 376 ft 1 kts 117°
2026-04-22 18:47 45.32114 -75.66917 376 ft 1 kts 130°
2026-04-22 18:47 45.32116 -75.66921 376 ft 0 kts 127°
2026-04-22 18:50 45.32113 -75.66915 376 ft 2 kts 127°
2026-04-22 18:50 45.32093 -75.66888 376 ft 5 kts 143°
2026-04-22 18:50 45.32052 -75.66847 376 ft 8 kts 145°
2026-04-22 18:51 45.31993 -75.66790 376 ft 11 kts 145°
2026-04-22 18:51 45.31926 -75.66724 376 ft 11 kts 137°
2026-04-22 18:51 45.31876 -75.66631 375 ft 10 kts 127°
2026-04-22 18:51 45.31818 -75.66582 374 ft 8 kts 190°
2026-04-22 18:52 45.31778 -75.66639 375 ft 8 kts 236°
2026-04-22 18:52 45.31749 -75.66704 377 ft 8 kts 238°
2026-04-22 18:52 45.31716 -75.66777 378 ft 9 kts 238°
2026-04-22 18:52 45.31678 -75.66863 379 ft 10 kts 237°
2026-04-22 18:53 45.31635 -75.66958 379 ft 12 kts 237°
2026-04-22 18:53 45.31592 -75.67055 378 ft 10 kts 235°
2026-04-22 18:53 45.31524 -75.67107 376 ft 9 kts 193°
2026-04-22 18:53 45.31470 -75.67123 376 ft 4 kts 191°
2026-04-22 18:54 45.31466 -75.67124 376 ft 0 kts 191°
2026-04-22 18:54 45.31465 -75.67124 376 ft 0 kts 191°
2026-04-22 18:55 45.31456 -75.67127 376 ft 2 kts 192°
2026-04-22 18:55 45.31420 -75.67139 375 ft 7 kts 192°
2026-04-22 18:55 45.31365 -75.67128 374 ft 6 kts 152°
2026-04-22 18:55 45.31354 -75.67072 375 ft 5 kts 65°
2026-04-22 18:56 45.31377 -75.67020 376 ft 14 kts 56°
2026-04-22 18:56 45.31573 -75.66587 374 ft 88 kts 58°
2026-04-22 18:56 45.32031 -75.65580 371 ft 149 kts 56°
2026-04-22 18:56 45.32655 -75.64245 721 ft 167 kts 57°
2026-04-22 18:57 45.33276 -75.62814 1347 ft 172 kts 58°
2026-04-22 18:57 45.33897 -75.61353 2048 ft 173 kts 58°
2026-04-22 18:57 45.34525 -75.59844 2507 ft 181 kts 58°
2026-04-22 18:57 45.35221 -75.58152 2812 ft 196 kts 58°
2026-04-22 18:58 45.35939 -75.56370 3116 ft 211 kts 62°
2026-04-22 18:58 45.36196 -75.54253 3365 ft 231 kts 99°
2026-04-22 18:58 45.35332 -75.52173 3630 ft 250 kts 142°
2026-04-22 18:58 45.33691 -75.51250 3953 ft 265 kts 179°
2026-04-22 18:59 45.31897 -75.51883 4491 ft 269 kts 211°
2026-04-22 18:59 45.30376 -75.53336 5235 ft 269 kts 216°
2026-04-22 18:59 45.28799 -75.54814 5973 ft 272 kts 214°
2026-04-22 18:59 45.27169 -75.56174 6717 ft 275 kts 211°
2026-04-22 19:00 45.25477 -75.57452 7440 ft 279 kts 210°
2026-04-22 19:00 45.23747 -75.58681 8140 ft 283 kts 209°
2026-04-22 19:00 45.21971 -75.59894 8855 ft 287 kts 209°
2026-04-22 19:00 45.20149 -75.61109 9560 ft 291 kts 209°
2026-04-22 19:01 45.18337 -75.62305 10241 ft 294 kts 209°
2026-04-22 19:01 45.16369 -75.63602 10686 ft 309 kts 209°
2026-04-22 19:01 45.14353 -75.64924 11106 ft 321 kts 209°
2026-04-22 19:01 45.12321 -75.66245 11755 ft 325 kts 209°
2026-04-22 19:02 45.10274 -75.67574 12426 ft 327 kts 210°
2026-04-22 19:02 45.08201 -75.68921 13089 ft 330 kts 210°
2026-04-22 19:02 45.06099 -75.70285 13719 ft 334 kts 210°
2026-04-22 19:02 45.03993 -75.71653 14326 ft 337 kts 211°
2026-04-22 19:03 45.01845 -75.73048 14942 ft 340 kts 211°
2026-04-22 19:03 44.99721 -75.74455 15539 ft 341 kts 213°
2026-04-22 19:03 44.97652 -75.76035 16132 ft 341 kts 216°
2026-04-22 19:03 44.95556 -75.77736 16727 ft 344 kts 217°
2026-04-22 19:04 44.93503 -75.79411 17304 ft 346 kts 217°
2026-04-22 19:04 44.91388 -75.81133 17890 ft 349 kts 217°
2026-04-22 19:04 44.89282 -75.82849 18439 ft 352 kts 217°
2026-04-22 19:04 44.87160 -75.84573 18974 ft 354 kts 218°
2026-04-22 19:05 44.84999 -75.86326 19449 ft 358 kts 218°
2026-04-22 19:05 44.82843 -75.88073 19925 ft 362 kts 218°
2026-04-22 19:05 44.80664 -75.89837 20423 ft 364 kts 218°
2026-04-22 19:05 44.78462 -75.91615 20883 ft 368 kts 219°
2026-04-22 19:06 44.76217 -75.93432 21350 ft 371 kts 219°
2026-04-22 19:06 44.73984 -75.95235 21782 ft 375 kts 219°
2026-04-22 19:06 44.71679 -75.96958 22192 ft 385 kts 212°
2026-04-22 19:07 44.66279 -75.98772 23019 ft 411 kts 193°
2026-04-22 19:07 44.63425 -75.99089 23445 ft 416 kts 191°
2026-04-22 19:07 44.60555 -75.99364 23837 ft 420 kts 191°
2026-04-22 19:07 44.57634 -75.99648 24258 ft 423 kts 191°
2026-04-22 19:08 44.54609 -75.99961 24676 ft 426 kts 191°
2026-04-22 19:08 44.51543 -76.00289 25114 ft 428 kts 192°
2026-04-22 19:08 44.48572 -76.00612 25571 ft 430 kts 192°
2026-04-22 19:08 44.45571 -76.00945 25957 ft 433 kts 192°
2026-04-22 19:09 44.42513 -76.01286 26335 ft 436 kts 192°
2026-04-22 19:09 44.39510 -76.01617 26763 ft 437 kts 192°
2026-04-22 19:09 44.37478 -76.01841 27036 ft 439 kts 192°
2026-04-22 19:09 44.33417 -76.02296 27521 ft 442 kts 192°
2026-04-22 19:10 44.30352 -76.02739 27903 ft 442 kts 194°
2026-04-22 19:10 44.27294 -76.03233 28257 ft 445 kts 194°
2026-04-22 19:10 44.24226 -76.03736 28606 ft 447 kts 194°
2026-04-22 19:10 44.21156 -76.04233 28967 ft 449 kts 194°
2026-04-22 19:11 44.18044 -76.04730 29304 ft 451 kts 194°
2026-04-22 19:11 44.14936 -76.05224 29628 ft 453 kts 194°
2026-04-22 19:11 44.11811 -76.05717 29950 ft 455 kts 194°
2026-04-22 19:11 44.08634 -76.06215 30299 ft 457 kts 194°
2026-04-22 19:12 44.05513 -76.06704 30619 ft 458 kts 194°
2026-04-22 19:12 44.02317 -76.07204 30879 ft 461 kts 194°
2026-04-22 19:12 43.99146 -76.07700 31105 ft 464 kts 194°
2026-04-22 19:12 43.95910 -76.08202 31340 ft 466 kts 194°
2026-04-22 19:13 43.92700 -76.08703 31551 ft 469 kts 194°
2026-04-22 19:13 43.89389 -76.09216 31772 ft 471 kts 194°
2026-04-22 19:13 43.86103 -76.09726 31992 ft 473 kts 194°
2026-04-22 19:13 43.82849 -76.10231 32245 ft 473 kts 194°
2026-04-22 19:14 43.79601 -76.10732 32511 ft 473 kts 194°
2026-04-22 19:14 43.76322 -76.11241 32753 ft 474 kts 194°
2026-04-22 19:14 43.73047 -76.11747 32975 ft 475 kts 194°
2026-04-22 19:14 43.69781 -76.12251 33194 ft 476 kts 194°
2026-04-22 19:15 43.67564 -76.12592 33348 ft 477 kts 194°
2026-04-22 19:15 43.63176 -76.13271 33619 ft 478 kts 194°
2026-04-22 19:15 43.59892 -76.13776 33816 ft 480 kts 194°
2026-04-22 19:15 43.56578 -76.14288 34042 ft 480 kts 193°
2026-04-22 19:16 43.53272 -76.14793 34246 ft 481 kts 193°
2026-04-22 19:16 43.49913 -76.15308 34428 ft 483 kts 193°
2026-04-22 19:16 43.46620 -76.15812 34600 ft 484 kts 194°
2026-04-22 19:16 43.43247 -76.16332 34824 ft 484 kts 193°
2026-04-22 19:17 43.39892 -76.16843 35033 ft 485 kts 193°
2026-04-22 19:17 43.36591 -76.17345 35228 ft 485 kts 193°
2026-04-22 19:17 43.33203 -76.17863 35402 ft 486 kts 193°
2026-04-22 19:17 43.29893 -76.18367 35593 ft 486 kts 193°
2026-04-22 19:18 43.26520 -76.18880 35750 ft 486 kts 193°
2026-04-22 19:18 43.23163 -76.19456 35919 ft 484 kts 196°
2026-04-22 19:18 43.19896 -76.20330 35939 ft 479 kts 201°
2026-04-22 19:19 43.13642 -76.23103 35944 ft 469 kts 211°
2026-04-22 19:19 43.07902 -76.27104 35957 ft 459 kts 220°
2026-04-22 19:20 43.02462 -76.31669 35957 ft 458 kts 221°
2026-04-22 19:20 42.96947 -76.36275 35957 ft 461 kts 220°
2026-04-22 19:21 42.91438 -76.40821 35959 ft 461 kts 220°
2026-04-22 19:21 42.85935 -76.45345 35957 ft 461 kts 220°
2026-04-22 19:22 42.80479 -76.49820 35960 ft 462 kts 220°
2026-04-22 19:22 42.74983 -76.54321 35966 ft 462 kts 220°
2026-04-22 19:23 42.69469 -76.58823 35966 ft 461 kts 220°
2026-04-22 19:23 42.63987 -76.63293 35970 ft 461 kts 220°
2026-04-22 19:24 42.58507 -76.67754 35970 ft 462 kts 219°
2026-04-22 19:24 42.53014 -76.72214 35973 ft 463 kts 219°
2026-04-22 19:25 42.47489 -76.76690 35975 ft 462 kts 219°
2026-04-22 19:25 42.42014 -76.81119 35969 ft 463 kts 219°
2026-04-22 19:26 42.36474 -76.85589 35962 ft 463 kts 219°
2026-04-22 19:26 42.30949 -76.90037 35962 ft 463 kts 219°
2026-04-22 19:27 42.25427 -76.94475 35969 ft 463 kts 219°
2026-04-22 19:27 42.19926 -76.98886 35970 ft 463 kts 219°
2026-04-22 19:28 42.14393 -77.03312 35960 ft 464 kts 219°
2026-04-22 19:28 42.08844 -77.07740 36231 ft 463 kts 219°
2026-04-22 19:28 42.06081 -77.09943 36056 ft 462 kts 219°
2026-04-22 19:29 42.03304 -77.12153 35998 ft 462 kts 219°
2026-04-22 19:29 41.97738 -77.16584 35965 ft 463 kts 219°
2026-04-22 19:30 41.94022 -77.19536 35963 ft 463 kts 219°
2026-04-22 19:30 41.86544 -77.25459 35960 ft 464 kts 219°
2026-04-22 19:31 41.80971 -77.29864 35964 ft 464 kts 218°
2026-04-22 19:31 41.75321 -77.34319 35965 ft 463 kts 218°
2026-04-22 19:32 41.69779 -77.38681 35966 ft 464 kts 218°
2026-04-22 19:32 41.64248 -77.43027 35970 ft 464 kts 218°
2026-04-22 19:33 41.58655 -77.47411 35971 ft 464 kts 218°
2026-04-22 19:33 41.53093 -77.51764 35975 ft 464 kts 218°
2026-04-22 19:34 41.47524 -77.56110 35972 ft 464 kts 218°
2026-04-22 19:34 41.41969 -77.60440 35972 ft 465 kts 218°
2026-04-22 19:35 41.36437 -77.64741 35973 ft 464 kts 218°
2026-04-22 19:35 41.31795 -77.68347 35974 ft 465 kts 217°
2026-04-22 19:36 41.25283 -77.73388 35976 ft 465 kts 217°
2026-04-22 19:36 41.19686 -77.77718 35976 ft 466 kts 217°
2026-04-22 19:37 41.14083 -77.82040 35980 ft 466 kts 217°
2026-04-22 19:37 41.08500 -77.86337 35981 ft 466 kts 217°
2026-04-22 19:38 41.02809 -77.90710 35983 ft 467 kts 217°
2026-04-22 19:38 40.96735 -77.93937 35979 ft 483 kts 195°
2026-04-22 19:38 40.93368 -77.94365 35986 ft 490 kts 183°
2026-04-22 19:39 40.89961 -77.93904 35986 ft 495 kts 170°
2026-04-22 19:39 40.86624 -77.92523 35989 ft 497 kts 156°
2026-04-22 19:39 40.83619 -77.90336 35992 ft 496 kts 144°
2026-04-22 19:40 40.78388 -77.84493 35999 ft 494 kts 135°
2026-04-22 19:40 40.73228 -77.78398 36003 ft 494 kts 136°
2026-04-22 19:40 40.70608 -77.75361 35645 ft 496 kts 137°
2026-04-22 19:41 40.67998 -77.72369 35028 ft 495 kts 137°
2026-04-22 19:41 40.65403 -77.69417 34345 ft 495 kts 136°
2026-04-22 19:41 40.62806 -77.66470 33704 ft 496 kts 137°
2026-04-22 19:41 40.60208 -77.63525 33063 ft 496 kts 137°
2026-04-22 19:42 40.57600 -77.60574 32409 ft 497 kts 137°
2026-04-22 19:42 40.54976 -77.57607 31731 ft 497 kts 137°
2026-04-22 19:42 40.52355 -77.54652 31174 ft 494 kts 137°
2026-04-22 19:42 40.49788 -77.51762 30743 ft 489 kts 137°
2026-04-22 19:43 40.44701 -77.46040 29837 ft 478 kts 137°
2026-04-22 19:43 40.42188 -77.43218 29378 ft 474 kts 137°
2026-04-22 19:43 40.39710 -77.40439 28925 ft 469 kts 138°
2026-04-22 19:44 40.37236 -77.37664 28485 ft 463 kts 138°
2026-04-22 19:44 40.34803 -77.34937 28056 ft 458 kts 139°
2026-04-22 19:44 40.32413 -77.32259 27622 ft 453 kts 139°
2026-04-22 19:44 40.30043 -77.29610 27188 ft 449 kts 139°
2026-04-22 19:45 40.27683 -77.26977 26754 ft 444 kts 139°
2026-04-22 19:45 40.25350 -77.24374 26329 ft 439 kts 139°
2026-04-22 19:45 40.23045 -77.21806 25902 ft 434 kts 140°
2026-04-22 19:45 40.20762 -77.19261 25483 ft 430 kts 140°
2026-04-22 19:46 40.18519 -77.16765 25074 ft 426 kts 140°
2026-04-22 19:46 40.16273 -77.14266 24646 ft 422 kts 140°
2026-04-22 19:46 40.14047 -77.11793 24230 ft 418 kts 140°
2026-04-22 19:46 40.11838 -77.09343 23816 ft 414 kts 141°
2026-04-22 19:47 40.09664 -77.06934 23408 ft 410 kts 141°
2026-04-22 19:47 40.07507 -77.04546 22990 ft 407 kts 141°
2026-04-22 19:47 40.06071 -77.02959 22707 ft 405 kts 141°
2026-04-22 19:47 40.03220 -76.99809 22139 ft 401 kts 141°
2026-04-22 19:48 40.01113 -76.97482 21720 ft 398 kts 140°
2026-04-22 19:48 39.99024 -76.95176 21308 ft 395 kts 140°
2026-04-22 19:48 39.96939 -76.92876 20885 ft 393 kts 140°
2026-04-22 19:48 39.94866 -76.90591 20471 ft 390 kts 140°
2026-04-22 19:49 39.92782 -76.88294 20055 ft 388 kts 140°
2026-04-22 19:49 39.90754 -76.86064 19642 ft 386 kts 140°
2026-04-22 19:49 39.88708 -76.83816 19219 ft 384 kts 140°
2026-04-22 19:49 39.86671 -76.81579 18797 ft 382 kts 140°
2026-04-22 19:50 39.84659 -76.79368 18386 ft 380 kts 140°
2026-04-22 19:50 39.82637 -76.77148 17988 ft 378 kts 140°
2026-04-22 19:50 39.80606 -76.74923 17588 ft 376 kts 140°
2026-04-22 19:50 39.78589 -76.72712 17167 ft 375 kts 140°
2026-04-22 19:51 39.76623 -76.70561 16748 ft 373 kts 140°
2026-04-22 19:51 39.74607 -76.68356 16331 ft 372 kts 140°
2026-04-22 19:51 39.72618 -76.66185 15908 ft 370 kts 140°
2026-04-22 19:51 39.70659 -76.64047 15499 ft 369 kts 140°
2026-04-22 19:52 39.68559 -76.62202 15041 ft 365 kts 159°
2026-04-22 19:52 39.66139 -76.61536 14616 ft 356 kts 183°
2026-04-22 19:52 39.63691 -76.61733 14212 ft 351 kts 189°
2026-04-22 19:52 39.61259 -76.62036 13793 ft 349 kts 189°
2026-04-22 19:53 39.58811 -76.62325 13377 ft 348 kts 188°
2026-04-22 19:53 39.56429 -76.62575 12972 ft 346 kts 188°
2026-04-22 19:53 39.54835 -76.62728 12704 ft 345 kts 188°
2026-04-22 19:53 39.51648 -76.63021 12156 ft 342 kts 187°
2026-04-22 19:54 39.49275 -76.63236 11842 ft 336 kts 187°
2026-04-22 19:54 39.46966 -76.63443 11859 ft 334 kts 188°
2026-04-22 19:54 39.44625 -76.63656 11873 ft 335 kts 187°
2026-04-22 19:54 39.42321 -76.63866 11903 ft 335 kts 187°
2026-04-22 19:55 39.39993 -76.64078 11930 ft 336 kts 187°
2026-04-22 19:55 39.37633 -76.64291 11947 ft 336 kts 187°
2026-04-22 19:55 39.35308 -76.64501 11953 ft 336 kts 187°
2026-04-22 19:55 39.32990 -76.64709 11954 ft 337 kts 187°
2026-04-22 19:56 39.30638 -76.64920 11922 ft 337 kts 188°
2026-04-22 19:56 39.28302 -76.65131 11494 ft 338 kts 187°
2026-04-22 19:56 39.25940 -76.65344 11048 ft 337 kts 188°
2026-04-22 19:56 39.23639 -76.65552 10633 ft 335 kts 187°
2026-04-22 19:57 39.21265 -76.65765 10218 ft 332 kts 187°
2026-04-22 19:57 39.18977 -76.65974 10030 ft 320 kts 188°
2026-04-22 19:57 39.16867 -76.66659 9954 ft 296 kts 211°
2026-04-22 19:57 39.15215 -76.68201 9965 ft 286 kts 227°
2026-04-22 19:58 39.13764 -76.69948 9820 ft 286 kts 229°
2026-04-22 19:58 39.12342 -76.71693 9622 ft 284 kts 228°
2026-04-22 19:58 39.10896 -76.73450 9414 ft 284 kts 228°
2026-04-22 19:58 39.09462 -76.75176 9215 ft 283 kts 227°
2026-04-22 19:59 39.08022 -76.76894 9014 ft 283 kts 227°
2026-04-22 20:00 38.99417 -76.87067 7830 ft 276 kts 227°
2026-04-22 20:00 38.98050 -76.88783 7625 ft 271 kts 237°
2026-04-22 20:01 38.97289 -76.90939 7416 ft 260 kts 264°
2026-04-22 20:01 38.97263 -76.93209 7231 ft 257 kts 275°
2026-04-22 20:01 38.97367 -76.95512 7032 ft 255 kts 275°
2026-04-22 20:01 38.97460 -76.97797 6833 ft 255 kts 275°
2026-04-22 20:02 38.97545 -77.00056 6639 ft 255 kts 275°
2026-04-22 20:02 38.97870 -77.02274 6433 ft 251 kts 293°
2026-04-22 20:02 38.98810 -77.04150 6238 ft 251 kts 312°
2026-04-22 20:02 39.00073 -77.05705 6047 ft 251 kts 315°
2026-04-22 20:03 39.01351 -77.07233 5797 ft 250 kts 315°
2026-04-22 20:03 39.02678 -77.08824 5535 ft 250 kts 315°
2026-04-22 20:03 39.03932 -77.10339 5284 ft 247 kts 315°
2026-04-22 20:03 39.05163 -77.11859 5036 ft 241 kts 314°
2026-04-22 20:04 39.06354 -77.13345 4792 ft 237 kts 314°
2026-04-22 20:04 39.07525 -77.14806 4542 ft 232 kts 314°
2026-04-22 20:04 39.08688 -77.16257 4295 ft 228 kts 314°
2026-04-22 20:04 39.09863 -77.17718 4039 ft 224 kts 314°
2026-04-22 20:05 39.11036 -77.19181 3783 ft 220 kts 314°
2026-04-22 20:05 39.11906 -77.20778 3509 ft 217 kts 284°
2026-04-22 20:05 39.11852 -77.22673 3270 ft 215 kts 253°
2026-04-22 20:05 39.11086 -77.24296 3024 ft 216 kts 227°
2026-04-22 20:06 39.09803 -77.25318 2775 ft 217 kts 199°
2026-04-22 20:06 39.08311 -77.25445 2706 ft 219 kts 171°
2026-04-22 20:06 39.06911 -77.24661 2708 ft 224 kts 148°
2026-04-22 20:06 39.05622 -77.23501 2707 ft 224 kts 146°
2026-04-22 20:07 39.04359 -77.22334 2701 ft 225 kts 146°
2026-04-22 20:07 39.03079 -77.21169 2697 ft 223 kts 147°
2026-04-22 20:07 39.01803 -77.20022 2694 ft 223 kts 147°
2026-04-22 20:07 39.00511 -77.18874 2696 ft 223 kts 147°
2026-04-22 20:08 38.99255 -77.17763 2681 ft 211 kts 147°
2026-04-22 20:08 38.98067 -77.16715 2687 ft 207 kts 148°
2026-04-22 20:08 38.96889 -77.15674 2680 ft 199 kts 147°
2026-04-22 20:08 38.95808 -77.14583 2632 ft 198 kts 142°
2026-04-22 20:09 38.94760 -77.13425 2522 ft 193 kts 141°
2026-04-22 20:09 38.93761 -77.12305 2317 ft 184 kts 141°
2026-04-22 20:09 38.92767 -77.11345 1988 ft 172 kts 149°
2026-04-22 20:09 38.91800 -77.10539 1707 ft 159 kts 151°
2026-04-22 20:10 38.90949 -77.09724 1468 ft 154 kts 131°
2026-04-22 20:10 38.90473 -77.08496 1290 ft 154 kts 112°
2026-04-22 20:10 38.90114 -77.07213 1077 ft 151 kts 113°
2026-04-22 20:10 38.89536 -77.06127 859 ft 146 kts 138°
2026-04-22 20:11 38.88790 -77.05260 665 ft 143 kts 141°
2026-04-22 20:11 38.88029 -77.04444 456 ft 140 kts 147°
2026-04-22 20:11 38.87143 -77.03971 260 ft 137 kts 172°
2026-04-22 20:11 38.86190 -77.03876 73 ft 135 kts 175°
2026-04-22 20:12 38.85307 -77.03794 21 ft 111 kts 175°
2026-04-22 20:12 38.84702 -77.03732 20 ft 62 kts 175°
2026-04-22 20:12 38.84514 -77.03713 19 ft 22 kts 176°
2026-04-22 20:12 38.84398 -77.03742 18 ft 9 kts 238°
2026-04-22 20:13 38.84387 -77.03835 18 ft 10 kts 268°
2026-04-22 20:13 38.84383 -77.03936 18 ft 11 kts 267°
2026-04-22 20:13 38.84378 -77.04037 19 ft 8 kts 266°
2026-04-22 20:13 38.84394 -77.04105 19 ft 8 kts 330°
2026-04-22 20:14 38.84448 -77.04123 20 ft 7 kts 349°
2026-04-22 20:14 38.84498 -77.04134 21 ft 6 kts 351°
2026-04-22 20:14 38.84543 -77.04143 22 ft 6 kts 351°
2026-04-22 20:14 38.84574 -77.04173 23 ft 4 kts 285°
2026-04-22 20:15 38.84585 -77.04207 23 ft 4 kts 313°
2026-04-22 20:15 38.84609 -77.04224 23 ft 4 kts 340°
2026-04-22 20:15 38.84633 -77.04235 24 ft 2 kts 342°
2026-04-22 20:15 38.84636 -77.04237 24 ft 0 kts 342°